カタログに戻る

SL-12 R/B

AUX MOTOR

運用中HEO
NORAD 32280·ROCKET BODY·🇷🇺 Russia

打ち上げ Oct 26, 2007 から Baikonur Cosmodrome

Loading…

次のパス (今後24時間)

TLE

最新Source: Space-Track

元期: Sep 14, 2026, 16:14 UTC

1 32280U 07052F   26257.67644137  .00000021  00000-0  24950-3 0  9995
2 32280  65.1031 293.1644 5659643 214.5045  90.6434  4.21934898196797

AllMySatでSL-12 R/Bをリアルタイム追跡

Download on the App Store